CAPE
0 0 0 0 0 0 0 0 0 0 1 1 1 2 1 2 2 2 3 2 1 1 2 1 1 1 2 2 1 4 2 0 0 0 0 0 0 0 0 0 0 0 0 0 0 0 0 0 0 0 0 0 0 0 0 0 0 0 0 0 0 0 0 0 0 0 0 24 72 171 335 267 141 502 677 242 190 314 203 125 1 105 529 563 1152 1770 1510 1749
0 0 0 0 0 0 0 0 0 1 2 2 1 2 2 2 2 1 2 1 1 0 1 2 1 1 1 1 2 2 1 0 0 0 0 0 0 0 0 0 0 0 0 0 0 0 0 0 0 0 0 0 0 0 0 0 0 0 0 0 0 0 0 0 0 0 27 105 191 148 239 508 355 373 761 274 132 396 275 36 2 116 966 1436 1360 1359 1607 1599
0 0 0 0 0 0 0 0 1 2 2 1 2 2 2 3 2 1 1 0 0 1 2 2 2 1 1 2 3 0 0 0 0 0 0 0 0 0 0 0 0 0 0 0 0 0 0 0 0 0 0 0 0 0 0 0 0 0 0 0 0 0 0 0 2 40 93 179 275 301 84 631 413 215 558 410 422 174 235 208 182 627 937 1268 1055 1396 1358 1555
0 0 1 0 0 0 0 0 0 2 2 2 2 2 2 3 2 1 1 0 0 1 2 2 2 1 2 1 1 0 0 0 0 0 0 0 0 0 0 0 0 0 0 0 0 0 0 0 0 0 0 0 0 0 0 0 0 0 0 0 0 0 0 9 16 101 111 37 316 255 486 190 226 792 544 301 383 150 718 1430 1180 1196 1070 1024 1078 1142 1079 1350
0 0 0 0 0 0 0 0 1 2 2 2 2 2 2 2 2 1 1 0 1 1 1 2 1 1 2 2 0 0 0 0 0 0 0 0 0 0 0 0 0 0 0 0 0 0 0 0 0 0 0 0 0 0 0 0 0 0 0 0 0 0 6 48 50 127 59 97 218 410 421 540 836 474 790 706 507 512 1055 1158 1162 1179 1142 1177 1068 1144 1115 995
0 0 0 0 1 0 0 0 1 1 2 3 2 2 2 4 2 1 1 2 2 2 2 1 1 2 1 2 1 0 0 0 0 0 0 0 0 0 0 0 0 0 0 0 0 0 0 0 0 0 0 0 0 0 0 0 0 0 0 0 0 0 6 23 93 230 187 203 448 304 636 928 407 179 416 279 642 705 1091 1366 1486 1643 1342 1188 1132 1295 1142 1181
0 0 0 1 1 0 0 0 1 1 2 3 3 2 2 2 2 1 2 2 2 2 0 1 1 3 1 0 0 0 0 0 0 0 0 0 0 0 0 0 0 0 0 0 0 0 0 0 0 0 0 0 0 0 0 0 0 0 0 2 25 31 72 104 132 150 196 354 418 386 354 541 185 225 353 907 345 1164 1470 1409 1607 1703 1550 1358 1254 1401 1262 1223
0 0 0 1 0 0 0 0 1 2 1 3 3 3 3 3 3 2 1 3 2 2 2 1 2 1 0 0 0 0 0 0 0 0 0 0 0 0 0 0 0 0 0 0 0 0 0 0 0 0 0 0 0 0 1 0 13 56 85 91 100 154 272 246 254 292 345 366 381 449 407 240 62 392 362 520 932 1362 1497 1551 1640 1675 1560 1376 1258 1280 1313 1234
0 0 0 0 0 0 0 0 1 2 2 3 3 3 2 4 3 4 3 2 3 2 1 2 2 0 0 0 0 0 0 0 0 0 0 0 0 0 0 0 0 0 0 0 0 0 0 0 0 0 0 0 0 0 10 8 23 26 56 174 306 326 353 393 402 375 416 402 501 548 270 223 407 835 721 533 1084 1519 1282 1425 1568 1603 1462 1495 1288 1216 1378 1050
0 0 0 0 0 0 0 0 0 3 2 2 3 3 2 2 2 6 3 1 2 2 3 3 0 0 0 0 0 0 0 0 0 0 0 0 0 0 0 0 0 0 0 0 0 0 0 0 0 0 0 0 0 1 0 50 164 80 204 311 298 38 230 278 264 247 239 388 437 571 481 324 507 876 166 1126 1096 1098 1141 1404 1539 1532 1586 1461 1326 1484 1314 1232
0 0 0 0 0 0 0 0 0 3 2 2 3 3 1 2 2 3 4 2 1 3 1 2 1 1 0 0 0 0 0 0 3 0 0 0 0 0 0 0 0 0 0 0 0 0 0 0 0 0 0 0 0 6 1 88 48 140 296 365 370 337 370 499 319 607 672 598 505 300 291 630 663 1070 229 989 1105 934 1189 1476 1540 1637 1570 1426 1420 1211 1453 1264
0 0 0 0 0 0 0 0 0 2 3 3 2 1 3 2 3 3 2 2 1 0 1 2 0 1 0 0 0 0 0 0 0 0 0 0 0 0 0 0 0 0 0 0 0 0 0 0 0 0 1 0 2 0 71 26 60 196 341 522 317 115 299 387 493 635 687 576 786 700 774 709 847 642 903 1182 1178 1164 1323 1346 1518 1601 1606 1529 1411 1091 1198 1197
0 0 0 0 0 0 0 0 0 4 3 3 1 3 2 1 4 3 2 0 2 1 2 2 0 0 0 0 0 0 0 0 0 0 0 0 0 0 0 0 0 0 0 0 0 0 0 0 0 0 36 1 0 42 34 3 178 288 476 538 53 40 325 328 304 616 500 610 1010 957 413 38 383 902 1113 1148 1374 1164 1212 1158 1269 1456 1476 1420 1218 1070 991 1049
0 0 0 0 0 0 0 0 0 4 3 3 3 2 2 1 1 2 1 0 1 0 0 0 1 0 0 0 0 0 0 0 0 0 0 0 0 0 0 0 0 0 0 0 0 0 0 0 0 0 0 4 25 3 63 181 370 378 117 65 75 362 285 398 361 453 598 838 1049 672 148 197 46 628 826 1242 1189 1124 958 966 1384 1471 1366 1272 1105 964 1102 1133
0 0 0 0 0 0 0 0 0 2 3 2 3 2 2 0 2 2 1 1 0 0 0 0 1 0 0 0 0 0 0 0 0 0 0 0 0 0 0 0 0 0 0 0 0 0 0 0 0 0 33 12 0 3 195 280 148 169 233 305 545 109 558 517 519 708 743 506 570 276 265 444 704 482 830 690 1132 947 1203 1151 1040 1232 1272 1171 1059 1047 1071 1110
0 0 0 0 0 0 0 0 0 1 4 2 2 2 0 0 0 0 0 1 0 0 2 0 0 0 0 28 101 0 0 0 0 0 0 0 0 0 0 0 0 0 0 0 0 0 0 0 0 0 0 2 35 76 80 206 319 216 76 441 414 411 615 577 624 962 1075 389 477 642 414 268 279 486 454 686 983 1179 1042 1075 1117 1288 1451 1092 742 885 991 1058
0 0 0 0 0 0 0 1 1 2 2 2 0 0 0 0 0 0 0 1 2 1 0 0 0 0 276 0 0 2 1 0 0 0 0 0 0 0 0 0 0 0 0 0 0 0 0 0 0 6 0 60 70 52 218 204 24 199 210 312 515 566 490 236 388 526 789 740 545 480 762 407 224 456 665 648 800 471 970 837 1101 1193 1266 1114 852 811 843 1059
0 0 0 0 0 0 0 1 1 2 0 0 0 0 0 0 3 0 0 1 0 1 0 0 0 0 0 0 1 0 0 0 0 0 0 0 0 0 0 0 0 0 0 0 0 4 2 17 15 160 213 153 123 189 280 153 56 162 156 288 414 233 216 330 784 862 783 736 842 860 675 675 736 433 812 538 424 894 1035 1010 1004 1061 1009 1059 1006 926 754 672
0 0 0 0 0 0 0 1 1 0 1 0 1 1 3 3 2 0 0 0 0 0 189 143 0 30 0 0 0 0 0 0 0 0 0 0 0 0 0 0 0 0 3 33 72 6 91 60 87 334 79 105 126 249 160 226 142 244 224 239 454 585 608 550 686 1024 839 304 816 838 793 151 39 397 410 498 761 626 1077 1035 850 922 829 845 870 667 729 607
0 0 0 0 0 0 0 0 2 1 0 0 0 0 0 0 0 0 0 0 0 0 0 0 0 0 0 0 0 0 0 0 0 0 0 0 0 0 0 0 0 0 0 25 7 226 3 194 282 379 445 344 231 110 167 154 131 146 227 429 433 519 488 729 1002 896 564 600 717 808 727 726 640 482 160 55 738 949 904 822 827 774 696 735 629 597 469 457
0 0 0 0 0 0 1 1 0 2 2 0 1 0 0 0 0 0 0 0 0 0 0 0 0 0 0 0 0 0 0 0 0 0 0 0 0 0 0 0 0 9 81 11 148 178 9 203 179 110 253 219 288 248 237 183 95 114 254 360 420 611 341 616 697 703 672 544 284 666 410 273 706 291 494 369 806 934 842 793 850 778 798 720 282 375 339 207
0 0 0 0 0 0 1 2 0 1 0 1 0 0 0 0 0 0 0 0 0 0 0 0 0 0 0 0 0 0 0 0 0 0 0 0 0 0 3 0 7 31 320 30 138 228 616 376 92 142 209 218 354 353 285 163 191 256 319 423 289 169 508 293 830 588 807 696 145 318 209 408 676 696 598 432 628 640 800 887 777 668 460 580 534 416 582 383
0 0 0 0 0 1 1 1 0 0 0 0 0 0 0 0 0 0 0 0 0 0 0 0 0 0 0 0 0 0 0 0 0 0 0 0 0 0 1 0 32 104 83 175 196 42 93 69 386 92 113 171 483 371 340 325 212 204 96 501 385 334 347 213 616 768 567 518 606 494 127 328 438 512 608 593 502 528 595 573 581 407 525 402 417 252 223 317
0 0 0 0 0 0 2 0 0 1 0 0 0 0 0 0 0 0 0 0 0 0 0 0 0 0 0 0 0 0 0 0 0 7 0 0 0 0 0 0 5 13 238 45 111 297 388 471 155 143 115 0 375 494 611 526 87 291 166 389 332 519 439 285 489 582 272 280 509 504 174 225 150 286 464 540 554 396 316 461 255 498 478 184 348 293 195 135
0 0 0 0 0 0 0 0 0 0 0 0 0 0 0 0 0 0 0 15 10 30 0 0 0 0 0 0 0 0 0 0 0 0 0 0 0 0 8 0 0 270 118 12 176 493 91 35 89 248 194 0 109 307 6 326 21 28 292 382 395 538 422 456 382 591 320 428 352 450 23 174 245 173 54 392 311 176 241 212 411 365 507 389 220 179 146 60
0 0 0 0 0 0 0 0 0 0 0 0 0 0 0 0 0 0 0 186 10 0 0 27 51 26 0 0 0 0 0 0 0 0 0 0 0 10 3 76 0 68 17 13 19 3 0 173 200 320 53 87 47 333 182 35 206 1 73 212 383 486 370 345 615 99 84 115 432 260 80 18 35 368 369 310 253 273 165 392 312 465 391 416 272 121 164 96
0 0 0 0 0 0 0 0 0 0 0 0 0 0 0 0 0 0 194 38 0 0 0 0 0 0 0 0 0 0 3 64 0 0 0 0 0 3 0 67 152 89 24 0 38 0 50 190 350 366 273 103 42 246 15 4 15 27 69 422 382 428 442 432 497 465 226 229 234 524 42 56 25 230 307 293 265 236 203 42 324 381 308 310 230 180 234 175
0 0 0 0 0 0 0 0 0 0 0 0 0 0 0 0 0 0 254 2 0 0 0 0 0 0 0 0 0 0 0 0 157 4 0 0 0 0 0 20 59 50 9 8 371 154 507 65 27 214 222 145 64 50 51 68 92 123 326 352 450 436 438 344 370 166 272 23 14 62 120 81 11 272 295 239 136 199 221 75 70 279 316 280 169 192 149 123
0 0 0 0 0 0 0 0 0 0 0 0 0 0 0 0 0 42 144 0 0 0 0 32 0 0 0 0 0 0 0 0 0 0 0 0 0 3 136 106 6 0 1 11 164 218 303 163 77 110 131 123 6 49 14 3 34 310 146 168 333 194 297 304 374 196 367 12 53 291 448 25 75 19 20 170 205 31 123 108 220 174 287 321 157 133 200 160
0 0 0 0 0 0 0 0 0 0 0 0 0 0 0 0 69 358 0 0 0 0 0 0 0 0 0 0 0 0 2 0 0 0 0 0 0 0 0 0 1 44 195 235 200 209 29 57 24 31 512 210 200 37 69 3 0 2 102 260 272 259 298 211 275 342 113 7 374 348 433 198 20 236 10 14 174 93 122 213 400 39 80 342 216 215 280 240
0 0 0 0 0 0 0 0 0 0 0 0 0 0 0 5 286 7 0 8 0 0 0 0 0 2 1 0 0 0 0 0 0 0 19 0 0 0 1 20 9 92 52 183 83 254 164 226 369 229 63 22 21 19 2 4 7 25 266 97 142 215 173 321 335 110 24 25 286 373 457 401 6 0 107 397 290 322 291 312 333 491 156 264 255 335 346 313
0 0 0 0 0 0 0 0 0 0 0 0 0 0 0 45 0 10 2 0 0 0 0 0 0 0 0 0 2 0 0 4 0 0 50 37 224 210 123 135 64 183 414 158 200 194 345 343 16 123 43 10 399 55 13 14 21 13 13 23 9 30 9 15 67 43 9 21 132 343 304 180 73 340 254 171 428 417 472 451 382 315 423 490 400 443 313 344
0 0 0 0 0 0 0 0 0 0 0 0 0 0 0 0 0 0 0 0 0 0 62 0 0 0 0 48 0 0 1 30 0 25 0 4 118 184 8 97 31 99 66 116 458 63 208 6 226 252 232 57 150 316 4 23 1 68 18 13 5 2 1 1 12 53 78 126 128 180 137 1 103 21 100 367 340 434 533 629 602 630 329 275 588 710 661 505
0 0 0 0 0 0 0 0 0 0 0 0 0 0 0 0 25 0 9 0 0 0 0 0 0 0 0 0 0 12 14 21 4 14 10 69 102 404 30 117 47 256 311 341 213 193 279 6 14 255 306 30 247 367 283 328 264 148 246 166 8 4 3 0 37 24 67 79 23 78 35 12 10 9 283 566 388 618 616 605 669 693 728 756 952 1067 1014 832
0 0 0 0 0 0 0 0 0 0 0 0 0 0 0 0 0 0 0 0 0 0 0 0 0 0 0 0 0 11 0 64 8 12 157 164 158 318 200 135 225 87 310 228 134 775 222 180 93 7 115 77 233 109 83 223 69 234 224 40 6 44 165 44 145 41 59 37 68 5 11 74 95 206 154 350 414 487 538 513 668 776 818 814 877 974 908 891
0 0 0 10 18 5 0 0 0 0 0 0 0 0 0 0 0 0 0 0 0 0 0 0 0 0 0 0 0 0 5 3 20 29 77 86 48 195 63 169 144 104 173 202 300 271 5 18 14 115 36 120 170 73 222 18 86 61 29 16 78 28 42 0 9 67 58 20 3 0 80 0 414 325 276 186 123 394 485 574 604 629 590 702 749 710 734 873
0 0 381 244 176 0 0 0 0 0 0 0 0 0 0 0 0 0 0 0 1 0 0 0 1 0 0 0 0 0 15 21 78 0 174 4 124 63 134 225 34 154 108 31 498 48 156 349 85 103 344 100 92 2 18 52 24 130 69 86 70 0 0 22 8 13 11 19 12 10 33 3 17 5 7 296 256 265 501 654 622 572 570 660 738 735 807 893
0 21 389 129 15 0 0 0 0 0 0 0 0 0 0 0 0 0 0 0 0 0 0 0 83 2 0 0 0 0 0 0 6 24 83 10 198 1 106 132 112 90 104 81 72 265 113 145 137 54 122 293 46 90 182 9 86 81 16 2 352 8 16 236 16 8 2 2 6 4 2 14 40 100 453 181 190 573 692 562 409 422 640 800 828 773 854 934
0 2 276 78 0 0 0 0 0 0 0 0 0 0 0 0 0 0 0 0 0 0 0 0 1 20 1 0 0 4 0 0 14 92 54 26 175 62 85 47 304 66 145 68 290 201 430 283 11 118 345 212 341 241 156 464 89 8 30 355 44 415 1 8 5 6 56 3 4 6 2 4 214 112 227 168 269 257 386 510 578 206 600 682 560 578 629 768
157 0 98 0 5 0 0 1 76 0 0 0 0 0 0 0 0 0 0 0 0 0 0 10 3 1 1 3 0 0 0 10 20 97 65 260 208 10 34 31 85 100 107 107 90 141 357 266 40 151 43 284 81 138 250 218 16 20 219 65 226 61 0 241 60 60 4 27 0 20 4 10 64 251 133 342 359 229 293 434 423 607 492 502 555 609 641 812
0 0 127 0 2 0 3 49 87 11 0 0 0 2 0 4 10 25 0 0 0 0 3 0 0 0 0 0 22 22 2 2 3 20 28 289 45 88 32 8 77 294 146 304 333 368 131 620 33 174 59 138 300 67 15 76 182 229 188 406 93 172 59 15 8 301 54 64 4 0 14 201 164 205 378 412 688 403 432 262 295 233 382 327 421 554 616 640
0 0 207 3 6 5 148 61 25 27 1 0 60 8 43 0 12 11 2 0 0 16 2 161 54 35 26 9 14 80 28 0 13 79 14 37 71 64 42 1 44 269 303 589 77 270 162 204 396 107 385 94 86 53 158 22 112 55 138 245 409 414 110 50 11 175 116 166 198 120 18 17 123 403 192 231 481 210 452 511 409 335 376 620 320 363 546 570
8 126 13 6 20 55 99 16 30 7 1 48 8 10 3 5 13 6 18 9 9 12 118 8 97 54 175 149 236 132 53 9 38 78 23 65 105 4 0 0 1 184 226 916 355 490 248 370 179 42 27 81 52 116 149 89 527 228 65 560 358 704 226 358 197 230 9 4 20 94 20 80 237 242 256 156 355 248 415 282 219 226 506 371 412 413 506 519
46 137 174 6 15 88 34 0 0 3 20 27 38 83 10 38 38 55 55 20 74 36 27 56 14 30 433 217 280 151 124 4 61 18 102 10 56 0 1 0 0 78 116 739 395 860 336 572 260 311 4 452 79 89 141 145 44 383 652 588 341 298 322 135 185 183 19 295 161 10 51 0 101 237 187 296 287 214 185 187 224 344 171 511 482 384 494 588
233 76 16 41 112 141 102 49 11 19 40 61 54 33 71 59 9 20 86 108 34 94 57 252 238 147 254 286 315 100 246 35 9 254 8 21 43 2 0 0 0 33 10 335 670 522 673 476 380 25 43 15 41 14 72 74 340 800 560 404 240 491 370 766 100 340 1 113 378 145 51 293 119 258 131 377 573 398 204 204 355 242 258 326 372 249 596 491
18 1 217 157 82 180 59 51 239 98 74 97 36 86 52 71 33 16 24 45 48 85 129 150 110 164 202 327 224 190 159 250 7 55 11 48 73 19 0 0 1 18 100 481 329 458 675 402 488 456 427 451 538 470 557 190 836 629 423 382 275 223 256 464 645 79 76 354 198 499 271 175 1 237 68 292 258 335 246 362 470 417 405 398 408 412 409 429
60 0 16 62 117 125 171 90 122 50 53 252 13 124 91 33 123 52 6 47 25 74 106 149 128 99 283 59 115 58 130 72 57 8 107 23 2 0 0 0 0 5 249 375 198 364 561 492 634 580 557 401 270 400 443 393 713 773 593 465 371 338 393 370 136 274 316 275 14 546 114 86 362 338 113 387 308 377 278 233 423 560 550 540 541 417 347 356
0 67 0 319 249 132 58 112 86 139 88 114 146 112 103 82 61 71 44 22 14 61 70 76 32 34 127 15 117 16 12 6 0 49 2 50 0 0 0 6 38 40 71 42 50 201 240 24 484 520 661 316 305 323 491 620 668 686 652 462 547 412 494 820 508 256 678 180 90 747 815 592 204 188 225 337 543 539 539 454 537 579 496 414 390 418 459 506
142 78 169 58 82 64 270 395 182 235 244 111 184 148 124 79 92 99 146 150 29 59 5 0 62 24 36 82 68 42 53 0 0 3 9 0 0 0 12 2 24 0 0 43 86 238 231 274 225 180 214 428 433 430 437 858 836 1004 490 516 500 450 476 610 503 454 439 532 496 820 382 762 618 392 300 454 596 719 781 615 540 464 417 429 270 601 402 260
0 0 149 10 116 12 44 108 179 149 174 411 15 117 66 110 79 101 48 29 100 45 1 5 13 0 188 100 176 17 70 5 0 0 32 5 0 39 10 3 4 3 0 44 54 643 114 92 63 187 280 582 329 448 465 662 714 1084 655 646 680 593 519 459 512 597 705 413 591 779 629 503 514 752 493 585 639 461 554 635 689 567 478 552 452 330 537 671
330 32 276 7 0 42 4 3 44 70 84 241 72 147 90 104 80 88 130 17 76 69 24 16 1 30 2 38 87 32 10 0 0 2 0 12 15 6 0 13 0 0 0 22 140 146 316 252 118 247 85 410 201 176 508 403 467 273 191 419 811 815 958 517 597 442 792 508 732 650 294 755 691 786 758 702 718 595 488 473 562 529 632 553 401 620 556 342
105 24 54 0 0 83 3 74 60 16 0 33 75 118 60 121 121 29 74 4 6 8 38 2 36 0 0 0 23 117 27 0 0 0 0 0 0 0 0 0 0 0 0 4 168 87 295 208 155 135 22 126 321 178 324 393 254 463 385 601 518 1080 718 796 809 760 687 494 683 449 734 91 821 916 820 630 685 608 687 549 471 136 336 416 385 234 253 232
Wind_Speed
nan nan nan nan nan nan nan nan nan nan nan nan nan nan nan nan nan nan nan nan nan nan nan nan nan nan nan nan nan nan nan nan nan nan nan nan nan nan nan nan nan nan nan nan nan nan nan nan nan nan nan nan nan nan nan nan nan nan nan nan nan nan nan nan nan nan nan nan nan 22 25 24 23 32 38 38 35 36 40 40 nan 41 42 48 52 54 46 39
nan nan nan nan nan nan nan nan nan nan nan nan nan nan nan nan nan nan nan nan nan nan nan nan nan nan nan nan nan nan nan nan nan nan nan nan nan nan nan nan nan nan nan nan nan nan nan nan nan nan nan nan nan nan nan nan nan nan nan nan nan nan nan nan nan nan nan 13 17 19 21 24 25 30 37 38 41 42 40 nan nan 43 48 52 55 59 52 51
nan nan nan nan nan nan nan nan nan nan nan nan nan nan nan nan nan nan nan nan nan nan nan nan nan nan nan nan nan nan nan nan nan nan nan nan nan nan nan nan nan nan nan nan nan nan nan nan nan nan nan nan nan nan nan nan nan nan nan nan nan nan nan nan nan nan nan 10 12 15 nan 28 32 30 39 37 41 41 38 40 42 47 48 53 54 54 49 44
nan nan nan nan nan nan nan nan nan nan nan nan nan nan nan nan nan nan nan nan nan nan nan nan nan nan nan nan nan nan nan nan nan nan nan nan nan nan nan nan nan nan nan nan nan nan nan nan nan nan nan nan nan nan nan nan nan nan nan nan nan nan nan nan nan 7 5 nan 19 18 26 24 26 29 34 32 38 40 43 48 49 51 51 52 53 48 44 44
nan nan nan nan nan nan nan nan nan nan nan nan nan nan nan nan nan nan nan nan nan nan nan nan nan nan nan nan nan nan nan nan nan nan nan nan nan nan nan nan nan nan nan nan nan nan nan nan nan nan nan nan nan nan nan nan nan nan nan nan nan nan nan nan nan 10 nan nan 4 12 16 19 19 30 27 27 37 44 48 48 48 48 49 50 48 41 40 41
nan nan nan nan nan nan nan nan nan nan nan nan nan nan nan nan nan nan nan nan nan nan nan nan nan nan nan nan nan nan nan nan nan nan nan nan nan nan nan nan nan nan nan nan nan nan nan nan nan nan nan nan nan nan nan nan nan nan nan nan nan nan nan nan nan 2 5 7 8 9 16 21 20 22 27 25 36 45 47 46 44 44 47 44 41 37 36 33
nan nan nan nan nan nan nan nan nan nan nan nan nan nan nan nan nan nan nan nan nan nan nan nan nan nan nan nan nan nan nan nan nan nan nan nan nan nan nan nan nan nan nan nan nan nan nan nan nan nan nan nan nan nan nan nan nan nan nan nan nan nan nan 1 5 5 5 4 7 10 12 12 16 21 24 28 39 42 45 43 42 42 43 40 36 35 34 32
nan nan nan nan nan nan nan nan nan nan nan nan nan nan nan nan nan nan nan nan nan nan nan nan nan nan nan nan nan nan nan nan nan nan nan nan nan nan nan nan nan nan nan nan nan nan nan nan nan nan nan nan nan nan nan nan nan nan nan nan 11 7 4 4 4 6 8 8 8 9 11 11 nan 22 25 29 34 37 39 37 37 40 42 37 36 36 35 34
nan nan nan nan nan nan nan nan nan nan nan nan nan nan nan nan nan nan nan nan nan nan nan nan nan nan nan nan nan nan nan nan nan nan nan nan nan nan nan nan nan nan nan nan nan nan nan nan nan nan nan nan nan nan nan nan nan nan nan 13 11 9 7 7 8 10 13 10 8 10 11 11 14 23 23 26 28 33 35 34 35 38 39 36 36 38 36 34
nan nan nan nan nan nan nan nan nan nan nan nan nan nan nan nan nan nan nan nan nan nan nan nan nan nan nan nan nan nan nan nan nan nan nan nan nan nan nan nan nan nan nan nan nan nan nan nan nan nan nan nan nan nan nan nan 15 nan 14 12 5 nan 7 8 10 14 17 16 12 13 14 13 12 17 19 22 29 31 32 33 34 36 37 37 37 38 36 32
nan nan nan nan nan nan nan nan nan nan nan nan nan nan nan nan nan nan nan nan nan nan nan nan nan nan nan nan nan nan nan nan nan nan nan nan nan nan nan nan nan nan nan nan nan nan nan nan nan nan nan nan nan nan nan nan nan 15 13 12 12 9 10 8 14 15 16 18 17 14 15 14 17 10 15 20 18 21 30 31 32 34 36 37 36 36 35 32
nan nan nan nan nan nan nan nan nan nan nan nan nan nan nan nan nan nan nan nan nan nan nan nan nan nan nan nan nan nan nan nan nan nan nan nan nan nan nan nan nan nan nan nan nan nan nan nan nan nan nan nan nan nan nan nan nan 14 13 15 13 4 7 10 14 14 17 18 14 13 16 17 8 11 13 18 17 19 23 25 30 35 36 37 36 34 32 29
nan nan nan nan nan nan nan nan nan nan nan nan nan nan nan nan nan nan nan nan nan nan nan nan nan nan nan nan nan nan nan nan nan nan nan nan nan nan nan nan nan nan nan nan nan nan nan nan nan nan nan nan nan nan nan nan 20 19 20 19 nan nan 13 10 16 16 20 18 14 10 14 nan 12 12 12 14 14 15 16 22 29 34 35 36 34 31 28 26
nan nan nan nan nan nan nan nan nan nan nan nan nan nan nan nan nan nan nan nan nan nan nan nan nan nan nan nan nan nan nan nan nan nan nan nan nan nan nan nan nan nan nan nan nan nan nan nan nan nan nan nan nan nan nan 24 27 22 14 nan nan 15 8 8 14 14 21 11 11 15 13 8 nan 13 12 11 16 13 14 22 28 31 35 35 33 30 26 24
nan nan nan nan nan nan nan nan nan nan nan nan nan nan nan nan nan nan nan nan nan nan nan nan nan nan nan nan nan nan nan nan nan nan nan nan nan nan nan nan nan nan nan nan nan nan nan nan nan nan nan nan nan nan 21 22 24 22 24 19 15 9 11 12 17 18 21 10 8 13 13 15 5 8 8 13 12 9 12 21 23 27 31 33 31 29 28 25
nan nan nan nan nan nan nan nan nan nan nan nan nan nan nan nan nan nan nan nan nan nan nan nan nan nan nan nan 21 nan nan nan nan nan nan nan nan nan nan nan nan nan nan nan nan nan nan nan nan nan nan nan nan nan nan 21 24 25 nan 15 9 8 7 12 15 21 20 19 14 17 14 10 8 12 15 12 9 7 6 13 19 23 26 28 31 29 29 30
nan nan nan nan nan nan nan nan nan nan nan nan nan nan nan nan nan nan nan nan nan nan nan nan nan nan 17 nan nan nan nan nan nan nan nan nan nan nan nan nan nan nan nan nan nan nan nan nan nan nan nan nan nan nan 18 18 nan 15 13 10 8 10 12 10 12 16 17 20 13 21 15 8 7 9 9 12 9 5 2 8 14 21 25 27 28 27 24 29
nan nan nan nan nan nan nan nan nan nan nan nan nan nan nan nan nan nan nan nan nan nan nan nan nan nan nan nan nan nan nan nan nan nan nan nan nan nan nan nan nan nan nan nan nan nan nan nan nan 24 24 23 21 20 17 11 nan 11 10 10 7 11 11 13 12 8 17 17 18 14 15 8 9 8 11 4 10 4 7 8 13 18 23 26 29 28 28 32
nan nan nan nan nan nan nan nan nan nan nan nan nan nan nan nan nan nan nan nan nan nan 16 18 nan nan nan nan nan nan nan nan nan nan nan nan nan nan nan nan nan nan nan nan nan nan nan nan nan 30 nan 22 19 16 15 12 11 12 11 11 12 12 12 11 8 9 14 17 17 16 15 6 nan 8 7 11 3 4 5 6 8 13 18 24 27 32 33 36
nan nan nan nan nan nan nan nan nan nan nan nan nan nan nan nan nan nan nan nan nan nan nan nan nan nan nan nan nan nan nan nan nan nan nan nan nan nan nan nan nan nan nan nan nan 24 nan 23 22 20 18 18 19 19 18 18 16 15 16 15 12 11 8 6 8 11 14 15 13 16 12 12 9 4 2 nan 8 2 5 5 7 11 16 22 29 34 35 39
nan nan nan nan nan nan nan nan nan nan nan nan nan nan nan nan nan nan nan nan nan nan nan nan nan nan nan nan nan nan nan nan nan nan nan nan nan nan nan nan nan nan nan nan 20 20 nan 23 18 16 18 20 20 20 20 22 nan 20 17 16 14 12 9 6 12 12 14 15 10 15 10 7 9 3 9 3 5 1 2 3 4 6 12 20 26 35 37 39
nan nan nan nan nan nan nan nan nan nan nan nan nan nan nan nan nan nan nan nan nan nan nan nan nan nan nan nan nan nan nan nan nan nan nan nan nan nan nan nan nan nan 24 nan 26 24 25 20 nan 19 19 21 22 22 21 22 22 22 19 14 17 9 9 11 12 13 13 17 8 19 9 8 8 5 4 4 4 4 4 5 5 4 10 20 26 35 41 45
nan nan nan nan nan nan nan nan nan nan nan nan nan nan nan nan nan nan nan nan nan nan nan nan nan nan nan nan nan nan nan nan nan nan nan nan nan nan nan nan nan 24 nan 26 18 nan nan nan 20 nan 19 20 21 23 21 22 23 21 nan 18 12 9 14 13 8 15 10 15 14 16 13 12 6 7 2 4 4 7 8 6 5 4 8 19 26 35 43 50
nan nan nan nan nan nan nan nan nan nan nan nan nan nan nan nan nan nan nan nan nan nan nan nan nan nan nan nan nan nan nan nan nan nan nan nan nan nan nan nan nan nan 23 nan 17 17 16 17 19 18 18 nan 19 18 21 21 nan 19 18 15 13 9 10 14 10 10 14 11 15 17 16 13 11 9 6 2 6 9 10 9 1 7 11 18 24 36 44 50
nan nan nan nan nan nan nan nan nan nan nan nan nan nan nan nan nan nan nan nan nan nan nan nan nan nan nan nan nan nan nan nan nan nan nan nan nan nan nan nan nan 23 18 nan 19 21 nan nan nan 21 18 nan 18 15 nan 15 nan nan 15 13 11 13 14 12 11 14 11 9 10 17 nan 15 12 10 nan 7 9 6 9 5 3 7 8 16 22 31 40 nan
nan nan nan nan nan nan nan nan nan nan nan nan nan nan nan nan nan nan nan 6 nan nan nan nan nan nan nan nan nan nan nan nan nan nan nan nan nan nan nan nan nan nan nan nan nan nan nan 20 23 22 nan nan nan 17 15 nan 16 nan nan 14 14 13 14 13 13 nan nan 11 11 13 nan nan nan 13 12 9 4 3 5 4 3 6 9 14 18 25 33 nan
nan nan nan nan nan nan nan nan nan nan nan nan nan nan nan nan nan nan 6 nan nan nan nan nan nan nan nan nan nan nan nan nan nan nan nan nan nan nan nan nan 20 nan nan nan nan nan nan 20 23 24 22 15 nan 16 nan nan nan nan nan 16 17 14 14 14 14 18 14 13 15 17 nan nan nan 15 14 11 5 4 5 nan 8 9 10 12 10 11 25 36
nan nan nan nan nan nan nan nan nan nan nan nan nan nan nan nan nan nan 6 nan nan nan nan nan nan nan nan nan nan nan nan nan 16 nan nan nan nan nan nan nan nan nan nan nan 17 23 20 nan nan 21 23 24 nan nan nan nan nan 13 15 16 16 15 13 14 16 15 14 nan nan nan 16 nan nan 12 13 14 9 9 9 nan nan 11 11 9 4 10 21 27
nan nan nan nan nan nan nan nan nan nan nan nan nan nan nan nan nan nan 4 nan nan nan nan nan nan nan nan nan nan nan nan nan nan nan nan nan nan nan 15 13 nan nan nan nan 19 18 21 19 nan 16 18 18 nan nan nan nan nan 12 14 16 15 15 16 15 16 15 15 nan nan 11 19 nan nan nan nan 8 9 nan 13 11 10 9 10 9 10 14 19 22
nan nan nan nan nan nan nan nan nan nan nan nan nan nan nan nan nan 6 nan nan nan nan nan nan nan nan nan nan nan nan nan nan nan nan nan nan nan nan nan nan nan nan 14 21 24 17 nan nan nan nan 15 11 22 nan nan nan nan nan 17 18 17 18 18 17 16 16 17 nan 7 12 14 19 nan 11 nan nan 13 nan 10 11 11 nan nan 12 11 15 19 18
nan nan nan nan nan nan nan nan nan nan nan nan nan nan nan nan 2 nan nan nan nan nan nan nan nan nan nan nan nan nan nan nan nan nan nan nan nan nan nan nan nan nan nan 14 nan 19 21 22 19 18 nan nan nan nan nan nan nan nan 14 nan 16 17 17 18 15 16 nan nan 7 13 14 19 nan nan 12 8 10 11 10 10 9 9 9 11 10 13 15 16
nan nan nan nan nan nan nan nan nan nan nan nan nan nan nan nan nan nan nan nan nan nan nan nan nan nan nan nan nan nan nan nan nan nan nan nan 5 7 7 5 nan 7 10 8 11 19 23 18 nan 18 nan nan 16 nan nan nan nan nan nan nan nan nan nan nan nan nan nan nan 10 14 17 10 nan 10 8 12 11 9 12 12 9 9 12 11 10 14 13 14
nan nan nan nan nan nan nan nan nan nan nan nan nan nan nan nan nan nan nan nan nan nan nan nan nan nan nan nan nan nan nan nan nan nan nan nan 4 10 nan nan nan nan nan 5 9 nan 13 nan 16 16 20 nan 14 11 nan nan nan nan nan nan nan nan nan nan nan nan nan 8 11 13 16 nan 9 nan nan 9 10 10 10 11 11 13 13 14 13 15 16 14
nan nan nan nan nan nan nan nan nan nan nan nan nan nan nan nan nan nan nan nan nan nan nan nan nan nan nan nan nan nan nan nan nan nan nan nan 6 5 nan 13 nan 4 8 7 5 7 7 nan nan 8 11 nan 14 9 8 9 12 9 12 7 nan nan nan nan nan nan nan nan nan nan nan nan nan nan 18 14 11 12 12 13 14 13 14 14 15 15 14 13
nan nan nan nan nan nan nan nan nan nan nan nan nan nan nan nan nan nan nan nan nan nan nan nan nan nan nan nan nan nan nan nan nan nan 6 4 7 6 6 7 9 nan 6 8 8 11 5 12 nan nan 10 nan 10 7 nan 8 nan 10 8 nan nan nan 11 nan 8 nan nan nan nan nan nan nan nan 18 20 17 11 11 13 12 12 12 11 11 13 14 15 15
nan nan nan nan nan nan nan nan nan nan nan nan nan nan nan nan nan nan nan nan nan nan nan nan nan nan nan nan nan nan nan nan nan nan nan nan nan 6 nan 7 6 5 1 5 4 4 nan nan nan 13 nan 13 10 nan 9 nan nan nan nan nan nan nan nan nan nan nan nan nan nan nan nan nan 14 15 17 12 11 12 13 11 10 9 9 9 10 11 11 12
nan nan 20 21 20 nan nan nan nan nan nan nan nan nan nan nan nan nan nan nan nan nan nan nan nan nan nan nan nan nan nan nan nan nan 5 nan 8 nan 8 9 nan 2 5 nan 6 nan 4 8 nan 11 10 nan nan nan nan nan nan 9 nan nan nan nan nan nan nan nan nan nan nan nan nan nan nan nan nan 21 13 11 11 10 7 7 7 7 8 8 8 8
nan nan 24 25 nan nan nan nan nan nan nan nan nan nan nan nan nan nan nan nan nan nan nan nan nan nan nan nan nan nan nan nan nan nan nan nan 7 nan 8 6 9 nan 2 nan nan 6 3 7 11 nan 7 12 nan nan 15 nan nan nan nan nan 13 nan nan 9 nan nan nan nan nan nan nan nan nan 17 19 14 12 12 9 9 7 7 8 7 6 6 7 8
nan nan 22 nan nan nan nan nan nan nan nan nan nan nan nan nan nan nan nan nan nan nan nan nan nan nan nan nan nan nan nan nan nan nan nan nan 4 nan nan nan 4 nan 4 nan 4 2 7 4 nan 8 8 9 13 14 5 8 nan nan nan 13 nan 13 nan nan nan nan nan nan nan nan nan nan 17 19 20 14 13 7 9 11 10 6 8 8 8 8 9 10
25 nan nan nan nan nan nan nan nan nan nan nan nan nan nan nan nan nan nan nan nan nan nan nan nan nan nan nan nan nan nan nan nan nan nan 9 3 nan nan nan nan nan 5 3 nan 3 1 6 nan 7 nan 9 nan 6 3 7 nan nan 10 nan 9 nan nan 12 nan nan nan nan nan nan nan nan nan 21 21 17 14 12 9 8 9 9 8 8 8 10 11 12
nan nan 29 nan nan nan nan nan nan nan nan nan nan nan nan nan nan nan nan nan nan nan nan nan nan nan nan nan nan nan nan nan nan nan nan 8 nan nan nan nan nan 5 4 3 3 6 1 3 nan 5 nan 5 6 nan nan nan 5 7 8 5 nan 14 nan nan nan 7 nan nan nan nan nan 10 14 17 16 17 18 12 8 8 8 7 8 7 10 12 12 12
nan nan 30 nan nan nan 17 nan nan nan nan nan nan nan nan nan nan nan nan nan nan nan nan 10 nan nan nan nan nan nan nan nan nan nan nan nan nan nan nan nan nan 5 4 7 nan 9 4 1 3 4 1 nan nan nan 4 nan 4 nan 2 5 11 8 9 nan nan 6 9 10 11 9 nan nan 13 14 15 15 10 7 9 12 11 10 10 12 13 14 14 13
nan 30 nan nan nan nan nan nan nan nan nan nan nan nan nan nan nan nan nan nan nan nan 11 nan nan nan 12 10 11 10 nan nan nan nan nan nan 9 nan nan nan nan 6 3 7 4 9 3 2 5 nan nan nan nan 8 6 nan 6 4 nan 7 8 6 8 9 10 10 nan nan nan nan nan nan 10 10 10 6 11 13 10 11 12 8 10 13 14 15 15 13
nan 28 27 nan nan nan nan nan nan nan nan nan nan nan nan nan nan nan nan nan nan nan nan nan nan nan 15 14 12 11 11 nan nan nan 10 nan nan nan nan nan nan nan 9 11 6 11 4 8 6 5 nan 7 nan nan 7 3 nan 3 7 8 7 6 5 6 7 8 nan 10 13 nan nan nan 6 8 9 9 7 9 10 10 9 8 9 10 10 12 13 12
29 nan nan nan 25 23 21 nan nan nan nan nan nan nan nan nan nan nan nan 12 nan nan nan 14 14 13 14 15 14 13 14 nan nan 14 nan nan nan nan nan nan nan nan nan 12 5 6 4 10 8 nan nan nan nan nan nan nan 7 6 7 10 7 7 4 7 nan 6 nan 6 11 11 nan 6 6 5 5 4 5 7 9 9 7 7 9 8 6 8 8 10
nan nan 27 25 nan 25 nan nan 23 nan nan nan nan nan nan nan nan nan nan nan nan nan 16 15 15 12 13 13 12 10 11 14 nan nan nan nan nan nan nan nan nan nan nan 9 8 6 8 8 10 10 9 10 11 8 8 5 7 7 11 10 9 6 7 9 8 nan nan 6 7 12 6 3 nan 3 nan 3 3 5 7 7 7 8 9 8 6 6 8 8
nan nan nan nan 25 24 25 nan 23 nan nan 19 nan 14 nan nan 11 nan nan nan nan nan 16 15 13 nan 12 nan 11 nan 12 nan nan nan 14 nan nan nan nan nan nan nan 7 6 11 7 6 7 14 10 9 10 10 8 8 5 7 8 11 12 9 8 7 9 9 9 10 8 nan 7 8 nan 2 2 4 3 3 5 6 7 8 7 7 6 6 7 7 7
nan nan nan 29 24 25 nan 24 nan 22 nan 16 15 14 10 nan nan nan nan nan nan nan nan nan nan nan 12 nan 12 nan nan nan nan nan nan nan nan nan nan nan nan nan nan nan nan 10 10 nan 14 10 10 10 10 10 8 7 8 7 10 12 12 11 8 5 5 9 11 8 nan 4 7 8 3 2 2 3 3 5 6 8 9 8 8 7 7 7 7 8
30 nan 28 nan nan nan 28 29 24 20 19 17 16 13 10 nan nan nan 13 15 nan nan nan nan nan nan nan nan nan nan nan nan nan nan nan nan nan nan nan nan nan nan nan nan nan 11 8 10 13 12 10 9 10 9 10 7 7 5 10 13 13 12 11 8 8 10 9 4 3 6 9 9 6 4 4 4 4 6 7 7 7 8 9 9 11 9 10 10
nan nan 26 nan 25 nan nan 23 22 18 15 20 nan 14 nan 10 nan 14 nan nan 13 nan nan nan nan nan 15 nan 14 nan nan nan nan nan nan nan nan nan nan nan nan nan nan nan nan 12 7 nan nan 10 9 11 12 10 10 8 8 9 9 14 16 13 13 12 11 13 10 8 7 8 11 10 8 8 8 6 6 6 7 8 9 10 10 11 14 14 11 11
32 nan 28 nan nan nan nan nan nan nan nan 17 nan 15 nan 11 nan nan 15 nan nan nan nan nan nan nan nan nan nan nan nan nan nan nan nan nan nan nan nan nan nan nan nan nan 11 9 6 10 8 8 nan 11 13 11 11 9 8 11 17 17 17 17 15 15 12 14 13 10 9 9 9 10 9 11 11 9 8 8 9 9 8 10 11 11 13 14 14 14
29 nan nan nan nan nan nan nan nan nan nan nan nan 15 nan 13 14 nan nan nan nan nan nan nan nan nan nan nan nan 14 nan nan nan nan nan nan nan nan nan nan nan nan nan nan 11 nan 10 8 8 11 nan 12 15 13 12 11 15 13 14 16 16 13 15 13 15 14 14 11 10 7 9 nan 12 13 12 11 11 11 9 8 8 11 12 12 14 15 16 17
Wind_Direction
nan nan nan nan nan nan nan nan nan nan nan nan nan nan nan nan nan nan nan nan nan nan nan nan nan nan nan nan nan nan nan nan nan nan nan nan nan nan nan nan nan nan nan nan nan nan nan nan nan nan nan nan nan nan nan nan nan nan nan nan nan nan nan nan nan nan nan nan nan 243 236 221 214 225 223 215 211 208 201 199 nan 203 202 201 202 204 224 216
nan nan nan nan nan nan nan nan nan nan nan nan nan nan nan nan nan nan nan nan nan nan nan nan nan nan nan nan nan nan nan nan nan nan nan nan nan nan nan nan nan nan nan nan nan nan nan nan nan nan nan nan nan nan nan nan nan nan nan nan nan nan nan nan nan nan nan 243 233 231 235 218 217 213 215 209 208 207 203 nan nan 201 209 208 205 208 220 215
nan nan nan nan nan nan nan nan nan nan nan nan nan nan nan nan nan nan nan nan nan nan nan nan nan nan nan nan nan nan nan nan nan nan nan nan nan nan nan nan nan nan nan nan nan nan nan nan nan nan nan nan nan nan nan nan nan nan nan nan nan nan nan nan nan nan nan 230 220 223 nan 213 210 205 212 205 202 200 201 199 199 202 201 203 205 213 218 226
nan nan nan nan nan nan nan nan nan nan nan nan nan nan nan nan nan nan nan nan nan nan nan nan nan nan nan nan nan nan nan nan nan nan nan nan nan nan nan nan nan nan nan nan nan nan nan nan nan nan nan nan nan nan nan nan nan nan nan nan nan nan nan nan nan 290 245 nan 214 194 216 200 204 213 211 200 195 201 211 208 200 197 197 202 204 214 222 224
nan nan nan nan nan nan nan nan nan nan nan nan nan nan nan nan nan nan nan nan nan nan nan nan nan nan nan nan nan nan nan nan nan nan nan nan nan nan nan nan nan nan nan nan nan nan nan nan nan nan nan nan nan nan nan nan nan nan nan nan nan nan nan nan nan 254 nan nan 200 204 197 204 214 204 202 201 194 199 206 203 198 196 198 202 208 219 222 226
nan nan nan nan nan nan nan nan nan nan nan nan nan nan nan nan nan nan nan nan nan nan nan nan nan nan nan nan nan nan nan nan nan nan nan nan nan nan nan nan nan nan nan nan nan nan nan nan nan nan nan nan nan nan nan nan nan nan nan nan nan nan nan nan nan 255 217 182 188 192 205 212 200 190 196 191 188 193 199 199 198 196 200 205 208 217 222 221
nan nan nan nan nan nan nan nan nan nan nan nan nan nan nan nan nan nan nan nan nan nan nan nan nan nan nan nan nan nan nan nan nan nan nan nan nan nan nan nan nan nan nan nan nan nan nan nan nan nan nan nan nan nan nan nan nan nan nan nan nan nan nan 353 91 106 48 98 156 163 181 187 187 177 199 192 186 193 199 197 195 197 202 206 206 213 216 212
nan nan nan nan nan nan nan nan nan nan nan nan nan nan nan nan nan nan nan nan nan nan nan nan nan nan nan nan nan nan nan nan nan nan nan nan nan nan nan nan nan nan nan nan nan nan nan nan nan nan nan nan nan nan nan nan nan nan nan nan 5 14 19 67 92 108 107 99 119 137 146 165 nan 181 188 185 188 198 197 198 196 198 204 206 207 210 211 210
nan nan nan nan nan nan nan nan nan nan nan nan nan nan nan nan nan nan nan nan nan nan nan nan nan nan nan nan nan nan nan nan nan nan nan nan nan nan nan nan nan nan nan nan nan nan nan nan nan nan nan nan nan nan nan nan nan nan nan 21 21 30 42 55 84 94 100 101 133 122 113 131 168 188 180 176 196 196 193 200 199 200 203 204 208 209 212 210
nan nan nan nan nan nan nan nan nan nan nan nan nan nan nan nan nan nan nan nan nan nan nan nan nan nan nan nan nan nan nan nan nan nan nan nan nan nan nan nan nan nan nan nan nan nan nan nan nan nan nan nan nan nan nan nan 18 nan 37 30 12 nan 51 65 80 68 67 68 66 85 106 125 184 182 192 200 200 190 193 200 201 197 201 203 207 210 214 212
nan nan nan nan nan nan nan nan nan nan nan nan nan nan nan nan nan nan nan nan nan nan nan nan nan nan nan nan nan nan nan nan nan nan nan nan nan nan nan nan nan nan nan nan nan nan nan nan nan nan nan nan nan nan nan nan nan 31 28 21 20 11 21 45 58 63 69 70 65 85 115 141 150 162 165 202 189 183 193 201 201 198 198 204 205 209 211 213
nan nan nan nan nan nan nan nan nan nan nan nan nan nan nan nan nan nan nan nan nan nan nan nan nan nan nan nan nan nan nan nan nan nan nan nan nan nan nan nan nan nan nan nan nan nan nan nan nan nan nan nan nan nan nan nan nan 26 16 13 314 326 30 61 82 87 77 66 73 101 112 119 129 153 172 187 188 187 196 204 204 199 200 201 202 206 210 213
nan nan nan nan nan nan nan nan nan nan nan nan nan nan nan nan nan nan nan nan nan nan nan nan nan nan nan nan nan nan nan nan nan nan nan nan nan nan nan nan nan nan nan nan nan nan nan nan nan nan nan nan nan nan nan nan 29 30 20 9 nan nan 30 76 86 82 77 66 73 90 98 nan 139 168 174 182 184 184 198 204 206 202 202 203 203 208 208 212
nan nan nan nan nan nan nan nan nan nan nan nan nan nan nan nan nan nan nan nan nan nan nan nan nan nan nan nan nan nan nan nan nan nan nan nan nan nan nan nan nan nan nan nan nan nan nan nan nan nan nan nan nan nan nan 31 19 22 3 nan nan 33 66 83 91 111 90 80 73 82 95 103 nan 170 145 169 182 187 213 211 205 205 204 208 209 206 204 210
nan nan nan nan nan nan nan nan nan nan nan nan nan nan nan nan nan nan nan nan nan nan nan nan nan nan nan nan nan nan nan nan nan nan nan nan nan nan nan nan nan nan nan nan nan nan nan nan nan nan nan nan nan nan 40 33 19 17 28 23 22 56 55 101 94 87 83 65 95 92 114 115 141 164 150 147 182 188 225 215 215 207 206 209 212 208 202 205
nan nan nan nan nan nan nan nan nan nan nan nan nan nan nan nan nan nan nan nan nan nan nan nan nan nan nan nan 334 nan nan nan nan nan nan nan nan nan nan nan nan nan nan nan nan nan nan nan nan nan nan nan nan nan nan 42 19 12 nan 28 35 80 81 82 87 79 70 82 53 80 88 85 107 180 160 122 171 183 224 227 216 211 206 208 212 210 208 209
nan nan nan nan nan nan nan nan nan nan nan nan nan nan nan nan nan nan nan nan nan nan nan nan nan nan 351 nan nan nan nan nan nan nan nan nan nan nan nan nan nan nan nan nan nan nan nan nan nan nan nan nan nan nan 51 38 nan 17 21 52 35 96 106 102 106 83 86 88 75 68 81 123 114 70 130 152 193 173 261 241 216 206 206 206 207 206 213 209
nan nan nan nan nan nan nan nan nan nan nan nan nan nan nan nan nan nan nan nan nan nan nan nan nan nan nan nan nan nan nan nan nan nan nan nan nan nan nan nan nan nan nan nan nan nan nan nan nan 29 24 30 32 38 49 54 nan 48 45 68 84 104 107 119 121 125 110 84 97 108 82 98 68 124 100 161 210 160 257 223 203 202 203 202 206 208 217 212
nan nan nan nan nan nan nan nan nan nan nan nan nan nan nan nan nan nan nan nan nan nan 355 344 nan nan nan nan nan nan nan nan nan nan nan nan nan nan nan nan nan nan nan nan nan nan nan nan nan 25 nan 28 39 48 62 68 62 61 63 80 95 109 121 122 115 106 109 113 107 113 102 94 nan 43 129 129 211 253 227 225 194 199 201 202 208 216 218 213
nan nan nan nan nan nan nan nan nan nan nan nan nan nan nan nan nan nan nan nan nan nan nan nan nan nan nan nan nan nan nan nan nan nan nan nan nan nan nan nan nan nan nan nan nan 3 nan 18 17 22 26 40 51 55 65 68 63 62 59 64 79 94 93 87 87 100 99 97 107 109 96 98 81 107 97 nan 90 242 238 207 187 190 206 210 212 216 219 214
nan nan nan nan nan nan nan nan nan nan nan nan nan nan nan nan nan nan nan nan nan nan nan nan nan nan nan nan nan nan nan nan nan nan nan nan nan nan nan nan nan nan nan nan 7 349 nan 13 8 20 31 39 49 53 55 60 nan 59 62 59 71 74 104 115 110 102 90 102 127 114 106 107 99 141 109 94 102 141 203 182 166 189 210 217 226 224 219 209
nan nan nan nan nan nan nan nan nan nan nan nan nan nan nan nan nan nan nan nan nan nan nan nan nan nan nan nan nan nan nan nan nan nan nan nan nan nan nan nan nan nan 355 nan 8 9 5 5 nan 23 33 36 42 46 49 58 61 53 52 56 64 73 87 122 99 97 93 91 92 104 114 118 105 117 120 89 109 109 117 127 130 155 228 223 229 232 224 214
nan nan nan nan nan nan nan nan nan nan nan nan nan nan nan nan nan nan nan nan nan nan nan nan nan nan nan nan nan nan nan nan nan nan nan nan nan nan nan nan nan 13 nan 12 14 nan nan nan 2 nan 29 40 41 37 48 55 56 54 nan 48 68 74 87 82 97 105 93 99 104 113 118 111 98 100 89 136 107 76 67 61 99 166 214 228 227 226 221 213
nan nan nan nan nan nan nan nan nan nan nan nan nan nan nan nan nan nan nan nan nan nan nan nan nan nan nan nan nan nan nan nan nan nan nan nan nan nan nan nan nan nan 11 nan 15 14 359 353 358 12 25 nan 49 51 51 57 nan 40 49 52 60 83 85 95 120 109 93 78 91 101 92 85 109 79 81 141 124 85 41 33 174 190 215 227 225 224 220 210
nan nan nan nan nan nan nan nan nan nan nan nan nan nan nan nan nan nan nan nan nan nan nan nan nan nan nan nan nan nan nan nan nan nan nan nan nan nan nan nan nan 10 5 nan 13 15 nan nan nan 7 15 nan 44 47 nan 64 nan nan 40 61 74 79 87 88 89 96 96 91 103 107 nan 94 82 96 nan 110 126 124 89 22 154 207 224 234 229 231 227 nan
nan nan nan nan nan nan nan nan nan nan nan nan nan nan nan nan nan nan nan 5 nan nan nan nan nan nan nan nan nan nan nan nan nan nan nan nan nan nan nan nan nan nan nan nan nan nan nan 3 11 12 nan nan nan 40 47 nan 59 nan nan 65 64 76 87 85 85 nan nan 115 112 99 nan nan nan 95 94 98 88 57 28 102 147 179 203 211 220 223 219 nan
nan nan nan nan nan nan nan nan nan nan nan nan nan nan nan nan nan nan 355 nan nan nan nan nan nan nan nan nan nan nan nan nan nan nan nan nan nan nan nan nan 3 nan nan nan nan nan nan 11 19 11 14 23 nan 33 nan nan nan nan nan 62 63 66 71 71 82 100 103 112 97 94 nan nan nan 94 88 70 73 96 124 nan 145 154 165 180 201 187 180 196
nan nan nan nan nan nan nan nan nan nan nan nan nan nan nan nan nan nan 358 nan nan nan nan nan nan nan nan nan nan nan nan nan 341 nan nan nan nan nan nan nan nan nan nan nan 34 1 14 nan nan 21 24 5 nan nan nan nan nan 65 72 69 62 67 68 65 77 91 105 nan nan nan 92 nan nan 86 75 83 93 136 141 nan nan 145 146 147 120 119 143 159
nan nan nan nan nan nan nan nan nan nan nan nan nan nan nan nan nan nan 323 nan nan nan nan nan nan nan nan nan nan nan nan nan nan nan nan nan nan nan 5 360 nan nan nan nan 34 9 11 18 nan 36 25 11 nan nan nan nan nan 42 67 62 60 54 55 64 73 75 74 nan nan 110 111 nan nan nan nan 77 120 nan 135 133 129 128 118 110 97 117 131 137
nan nan nan nan nan nan nan nan nan nan nan nan nan nan nan nan nan 349 nan nan nan nan nan nan nan nan nan nan nan nan nan nan nan nan nan nan nan nan nan nan nan nan 29 18 27 29 nan nan nan nan 25 18 12 nan nan nan nan nan 63 62 44 46 49 58 75 80 74 nan 115 114 115 114 nan 118 nan nan 132 nan 121 135 134 nan nan 117 108 119 125 128
nan nan nan nan nan nan nan nan nan nan nan nan nan nan nan nan 353 nan nan nan nan nan nan nan nan nan nan nan nan nan nan nan nan nan nan nan nan nan nan nan nan nan nan 20 nan 12 9 5 10 5 nan nan nan nan nan nan nan nan 50 nan 53 41 48 59 66 71 nan nan 132 126 129 122 nan nan 148 129 120 137 138 139 144 144 130 116 112 112 116 125
nan nan nan nan nan nan nan nan nan nan nan nan nan nan nan nan nan nan nan nan nan nan nan nan nan nan nan nan nan nan nan nan nan nan nan nan 333 340 305 313 nan 343 21 342 15 5 6 3 nan 8 nan nan 13 nan nan nan nan nan nan nan nan nan nan nan nan nan nan nan 146 133 120 121 nan 146 146 162 154 147 137 137 141 133 135 131 124 121 123 125
nan nan nan nan nan nan nan nan nan nan nan nan nan nan nan nan nan nan nan nan nan nan nan nan nan nan nan nan nan nan nan nan nan nan nan nan 20 313 nan nan nan nan nan 39 33 nan 349 nan 6 356 15 nan 35 39 nan nan nan nan nan nan nan nan nan nan nan nan nan 137 138 135 129 nan 134 nan nan 153 149 144 132 131 135 137 131 121 124 124 135 138
nan nan nan nan nan nan nan nan nan nan nan nan nan nan nan nan nan nan nan nan nan nan nan nan nan nan nan nan nan nan nan nan nan nan nan nan 330 290 nan 312 nan 345 16 29 25 20 14 nan nan 26 3 nan 33 58 73 67 64 25 56 77 nan nan nan nan nan nan nan nan nan nan nan nan nan nan 141 141 148 141 135 131 135 134 126 126 131 136 138 139
nan nan nan nan nan nan nan nan nan nan nan nan nan nan nan nan nan nan nan nan nan nan nan nan nan nan nan nan nan nan nan nan nan nan 334 304 292 285 269 281 302 nan 4 29 329 27 18 19 nan nan 20 nan 46 39 nan 69 nan 58 65 nan nan nan 94 nan 116 nan nan nan nan nan nan nan nan 130 129 127 140 140 137 132 130 133 132 132 135 137 141 147
nan nan nan nan nan nan nan nan nan nan nan nan nan nan nan nan nan nan nan nan nan nan nan nan nan nan nan nan nan nan nan nan nan nan nan nan nan 283 nan 293 280 263 293 350 340 9 nan nan nan 6 nan 28 24 nan 38 nan nan nan nan nan nan nan nan nan nan nan nan nan nan nan nan nan 123 123 143 142 142 150 140 139 137 136 133 132 133 130 135 142
nan nan 233 242 247 nan nan nan nan nan nan nan nan nan nan nan nan nan nan nan nan nan nan nan nan nan nan nan nan nan nan nan nan nan 313 nan 321 nan 276 294 nan 300 254 nan 352 nan 45 51 nan 21 20 nan nan nan nan nan nan 56 nan nan nan nan nan nan nan nan nan nan nan nan nan nan nan nan nan 135 153 151 151 146 142 125 127 129 130 130 136 145
nan nan 225 234 nan nan nan nan nan nan nan nan nan nan nan nan nan nan nan nan nan nan nan nan nan nan nan nan nan nan nan nan nan nan nan nan 291 nan 275 270 296 nan 240 nan nan 308 34 30 345 nan 26 5 nan nan 26 nan nan nan nan nan 76 nan nan 131 nan nan nan nan nan nan nan nan nan 152 143 152 150 164 155 137 137 158 143 151 153 165 175 176
nan nan 234 nan nan nan nan nan nan nan nan nan nan nan nan nan nan nan nan nan nan nan nan nan nan nan nan nan nan nan nan nan nan nan nan nan 289 nan nan nan 279 nan 283 nan 12 301 3 52 nan 351 35 7 27 36 40 15 nan nan nan 52 nan 86 nan nan nan nan nan nan nan nan nan nan 158 154 160 156 156 167 158 149 155 173 162 166 177 183 185 185
224 nan nan nan nan nan nan nan nan nan nan nan nan nan nan nan nan nan nan nan nan nan nan nan nan nan nan nan nan nan nan nan nan nan nan 270 246 nan nan nan nan nan 224 283 nan 277 355 337 nan 330 nan 12 nan 62 17 95 nan nan 92 nan 75 nan nan 115 nan nan nan nan nan nan nan nan nan 159 156 158 156 173 160 170 175 177 188 190 191 194 197 197
nan nan 231 nan nan nan nan nan nan nan nan nan nan nan nan nan nan nan nan nan nan nan nan nan nan nan nan nan nan nan nan nan nan nan nan 271 nan nan nan nan nan 190 178 358 345 256 304 34 nan 81 nan 1 338 nan nan nan 102 50 70 98 nan 94 nan nan nan 115 nan nan nan nan nan 175 176 159 154 168 162 186 177 196 205 205 209 215 208 210 208 214
nan nan 232 nan nan nan 233 nan nan nan nan nan nan nan nan nan nan nan nan nan nan nan nan 256 nan nan nan nan nan nan nan nan nan nan nan nan nan nan nan nan nan 235 202 248 nan 255 232 89 78 73 65 nan nan nan 8 nan 79 nan 161 121 116 109 95 nan nan 152 127 159 146 165 nan nan 170 157 177 175 182 217 196 203 211 213 215 216 222 223 219 222
nan 223 nan nan nan nan nan nan nan nan nan nan nan nan nan nan nan nan nan nan nan nan 267 nan nan nan 264 252 264 260 nan nan nan nan nan nan 262 nan nan nan nan 244 233 256 242 281 281 209 171 nan nan nan nan 342 359 nan 93 89 nan 167 132 129 139 142 145 144 nan nan nan nan nan nan 172 180 199 175 204 224 216 225 237 230 221 233 235 234 229 227
nan 225 233 nan nan nan nan nan nan nan nan nan nan nan nan nan nan nan nan nan nan nan nan nan nan nan 263 268 264 256 253 nan nan nan 265 nan nan nan nan nan nan nan 231 247 228 243 234 248 182 177 nan 311 nan nan 346 296 nan 157 159 163 154 126 103 138 117 120 nan 158 153 nan nan nan 188 212 190 202 231 254 243 237 225 222 249 243 236 230 223 226
224 nan nan nan 232 231 228 nan nan nan nan nan nan nan nan nan nan nan nan 240 nan nan nan 258 251 264 268 268 268 264 263 nan nan 264 nan nan nan nan nan nan nan nan nan 238 226 225 215 215 202 nan nan nan nan nan nan nan 157 152 172 169 184 142 156 110 nan 138 nan 158 141 160 nan 203 221 218 231 200 223 218 230 229 214 222 250 257 243 232 219 229
nan nan 233 234 nan 234 nan nan 236 nan nan nan nan nan nan nan nan nan nan nan nan nan 245 262 262 263 268 278 274 271 267 270 nan nan nan nan nan nan nan nan nan nan nan 248 220 259 229 230 217 208 202 214 218 212 237 141 124 174 164 182 180 165 160 149 139 nan nan 145 174 196 247 235 nan 205 nan 205 218 236 227 232 235 235 238 239 235 223 219 222
nan nan nan nan 234 230 234 nan 243 nan nan 248 nan 260 nan nan 261 nan nan nan nan nan 254 248 260 nan 267 nan 261 nan 266 nan nan nan 246 nan nan nan nan nan nan nan 218 244 241 243 238 235 238 215 219 220 223 216 221 201 167 177 173 187 182 169 169 196 183 182 189 164 nan 202 278 nan 171 214 245 235 232 243 244 247 252 251 256 250 242 239 240 238
nan nan nan 222 220 232 nan 240 nan 245 nan 249 254 259 266 nan nan nan nan nan nan nan nan nan nan nan 253 nan 258 nan nan nan nan nan nan nan nan nan nan nan nan nan nan nan nan 232 221 nan 243 220 225 229 230 225 221 215 205 190 184 186 191 187 191 204 204 188 173 164 nan 253 264 261 245 216 238 252 243 247 248 252 254 261 265 272 276 269 259 251
216 nan 224 nan nan nan 226 232 235 236 245 245 252 265 268 nan nan nan 240 259 nan nan nan nan nan nan nan nan nan nan nan nan nan nan nan nan nan nan nan nan nan nan nan nan nan 242 227 238 231 221 219 241 245 238 239 217 231 218 202 197 198 206 212 213 224 211 194 180 229 283 268 263 248 234 231 247 252 258 255 256 269 277 274 276 271 261 267 266
nan nan 228 nan 220 nan nan 234 235 239 245 254 nan 269 nan 268 nan 263 nan nan 261 nan nan nan nan nan 263 nan 265 nan nan nan nan nan nan nan nan nan nan nan nan nan nan nan nan 254 227 nan nan 219 215 251 248 253 252 245 223 217 215 212 203 209 221 214 217 217 215 247 284 280 270 260 240 240 248 257 250 260 268 275 269 269 275 273 276 281 263 262
216 nan 215 nan nan nan nan nan nan nan nan 257 nan 265 nan 267 nan nan 258 nan nan nan nan nan nan nan nan nan nan nan nan nan nan nan nan nan nan nan nan nan nan nan nan nan 253 237 244 244 243 227 nan 244 254 236 248 244 235 219 221 210 199 204 209 206 204 202 203 247 272 278 263 241 259 267 263 262 264 267 266 271 273 273 271 273 275 273 277 276
216 nan nan nan nan nan nan nan nan nan nan nan nan 263 nan 261 260 nan nan nan nan nan nan nan nan nan nan nan nan 256 nan nan nan nan nan nan nan nan nan nan nan nan nan nan 246 nan 238 219 226 229 nan 234 238 228 231 233 241 248 238 210 194 211 211 217 221 215 214 245 268 244 245 nan 267 266 275 275 274 267 266 266 270 278 280 276 273 277 278 274